Location: Gradaro
(45.0833°N, 10.8833°E)
Time: 15:24:38
(UTC+00:00)

NOAA 12 - Pass Details

Date: 29 November 2020
Orbit: 795 x 815 km, 98.5° (Epoch: 22 January)

Event Time Altitude Azimuth Distance (km) Brightness Sun altitude
Rises 05:39:00 0° 14° (NNE) 3,331 7.2 -9.4°
Reaches altitude 10° 05:41:21 10° 16° (NNE) 2,393 6.5 -9.0°
Maximum altitude 05:46:39 79° 103° (ESE) 821 4.3 -8.1°
Drops below altitude 10° 05:51:53 10° 191° (S) 2,364 6.7 -7.3°
Sets 05:54:12 0° 192° (SSW) 3,287 7.4 -6.9°
